Location: Laverne
(36.7100°N, 99.8930°W)
Time: 02:26:46
(UTC-06:00)

Daily predictions for brighter satellites

Satellite Brightness Start Highest point End
(mag) Time Altitude Azimuth Time Altitude Azimuth Time Altitude Azimuth
CENTAUR R/B 4.3 04:12:47 24° NE 04:12:47 24° NE 04:15:19 10° NE
CZ-3C R/B 4.0 04:18:20 30° S 04:20:36 34° SSE 04:56:56 10° E
Gbstr 26 Del rocket 4.2 05:05:09 41° ESE 05:05:09 41° ESE 05:07:56 10° ESE
DELTA 2 R/B (1) 3.7 05:13:20 63° S 05:13:20 63° S 05:18:18 10° ESE
Cosmos 2181 Rocket 3.9 05:11:57 61° NNW 05:13:10 83° W 05:19:30 10° S
Cosmos 972 4.4 05:23:16 77° SW 05:23:16 77° SW 05:28:08 10° S
Cosmos 2297 3.5 05:24:46 73° W 05:25:02 75° WSW 05:30:41 10° SSE
Cosmos 1536 Rocket 4.5 05:24:46 24° NNE 05:27:10 48° E 05:31:25 10° SSE
Tiangong 2 3.4 05:38:56 18° NE 05:38:56 18° NE 05:40:07 10° NE
Cosmos 2278 Rocket 4.0 05:42:53 15° SW 05:42:53 15° SW 05:44:09 10° SSW
USA 215 3.2 05:34:44 10° NE 05:41:11 64° NW 05:44:09 34° WSW
OAO 3 Copernicus 4.4 05:41:52 52° WSW 05:43:01 71° S 05:48:05 10° E
Okean 1 3.6 05:42:07 29° N 05:44:01 68° E 05:48:01 10° SSE
Okean 1 Rocket 4.4 05:40:09 10° SSE 05:44:16 39° E 05:48:22 10° NNE
Cosmos 1680 Rocket 4.3 05:46:28 32° NNW 05:46:28 32° NNW 05:49:41 10° N
Abrixas rocket 3.4 05:44:25 37° SSE 05:44:59 41° SE 05:48:10 10° ENE
SJ-6F 4.2 05:41:19 10° N 05:45:23 83° WNW 05:49:28 10° SSW
SL-16 R/B 3.0 05:47:25 31° NNW 05:47:25 31° NNW 05:51:10 10° N
Cosmos 921 Rocket 3.1 05:44:57 32° N 05:47:00 79° ENE 05:51:30 10° SSE
CZ-3 R/B 3.5 05:38:27 10° SW 05:50:01 27° S 05:54:27 10° ESE
COSMO-SKYMED 1 2.9 05:46:07 10° SSE 05:50:24 66° ENE 05:54:20 12° N
Meteor 1-25 Rocket 4.3 05:45:46 10° SSW 05:51:29 58° W 05:57:14 10° N
Cosmos 1812 2.7 05:52:20 59° WSW 05:52:20 59° WSW 05:55:51 10° S
Cosmos 1238 Rocket 3.6 05:57:07 26° NNW 05:59:45 54° W 06:05:26 10° S
CENTAUR R/B 3.6 06:00:01 24° NW 06:00:01 24° NW 06:05:27 10° NNE
Cosmos 1346 Rocket 2.6 05:58:39 23° N 06:01:00 90° W 06:04:56 10° S
Cosmos 1633 3.0 06:01:34 10° S 06:05:10 62° E 06:08:47 10° NNE
NOAA 6 4.1 06:03:51 10° N 06:08:48 51° WNW 06:13:44 10° SSW
PSLV R/B 3.7 06:11:20 38° NW 06:12:11 49° NNE 06:15:29 10° E
Meteor 1-28 Rocket 3.7 06:10:06 10° SSE 06:13:49 62° ENE 06:17:36 10° N
USA 129 4.3 06:12:35 10° SE 06:14:09 20° ENE 06:15:48 10° NNE
Cosmos 1300 Rocket 3.5 06:09:56 10° SSW 06:14:20 68° W 06:18:44 10° N
CZ-4 R/B 3.3 06:14:17 10° NNE 06:17:50 32° E 06:21:21 10° SSE
DELTA 2 R/B(2) 3.8 06:17:31 39° W 06:18:19 66° NNW 06:20:11 10° ENE
Lacrosse 5 1.8 06:14:56 10° SW 06:20:02 78° NW 06:25:10 10° NE
Cosmos 2341 Rocket 4.2 06:15:23 10° S 06:21:40 77° E 06:27:56 10° N
Cosmos 2074 Rocket 4.4 06:16:04 10° SW 06:21:51 38° WNW 06:27:39 10° N
Cosmos 1536 2.9 06:22:43 10° S 06:26:42 79° E 06:30:42 10° N
Cosmos 192 4.3 06:24:39 10° SSW 06:29:28 57° WNW 06:34:18 10° N
Cosmos 44 Rocket 3.4 06:26:09 10° SW 06:31:17 64° WNW 06:36:23 10° NNE
Meteor 2-4 Rocket 4.1 06:26:46 10° N 06:32:16 67° E 06:37:54 10° SSE
CSL-04 Rocket 3.7 06:30:38 10° N 06:36:09 70° WNW 06:41:36 10° SSW
CSL-04 Debris 4.1 06:32:04 10° N 06:37:33 80° WNW 06:43:01 10° SSW
PAYLOAD A 4.4 06:33:03 10° NNE 06:38:27 76° ESE 06:43:52 10° S
SKYMED 2 4.3 06:34:38 10° SSW 06:38:32 33° W 06:42:28 10° NNW
IRS-1A Rocket 4.4 06:33:27 10° NNE 06:39:11 84° ESE 06:45:00 10° SSW
Cosmos 1603 4.3 06:38:29 10° SW 06:43:35 33° WNW 06:48:40 10° N
SL-24 DEB 4.3 06:40:41 10° S 06:45:24 62° W 06:50:10 10° NNW
Cosmos 2369 Rocket 2.4 06:41:53 10° NNW 06:47:38 76° ENE 06:53:18 10° SSE
Cosmos 2056 Rocket 3.8 06:43:52 10° NNW 06:48:44 45° WSW 06:53:34 10° S
SPOT 3 Rocket 4.3 06:44:19 10° NNE 06:49:23 58° ESE 06:54:26 10° S
Helios 1B rocket 3.4 06:46:34 10° SSE 06:50:34 50° ENE 06:54:35 10° N
USA 229 DEB 4.0 06:44:38 10° SSW 06:51:29 77° ESE 06:58:25 10° NE
USA 229 4.0 06:44:45 10° SSW 06:51:35 76° ESE 06:58:31 10° NE
Cosmos 2154 Rocket 4.3 06:46:19 10° SSW 06:52:12 44° W 06:58:06 10° N
GPS 2-05 Rocket1 3.5 06:52:29 11° W 06:55:50 48° SSW 06:59:21 10° ESE
Meteor 1-29 4.1 06:57:53 10° SSE 07:01:07 45° ENE 07:04:21 10° N
Ariane Rocket 3.8 07:00:12 10° N 07:04:27 28° WNW 07:08:40 10° SW
IDEFIX/ARIANE 42P 2.6 07:03:50 10° NNE 07:09:02 87° WNW 07:14:14 10° SSW
Cosmos 1975 4.3 07:05:28 10° SSE 07:09:20 42° E 07:13:13 10° NNE
Cosmos 1943 3.5 07:04:16 10° SW 07:09:37 44° WNW 07:15:00 10° N
SJ-7 4.4 07:06:44 10° N 07:10:54 81° WNW 07:15:00 10° SSW
